Погода в Вурманкасах

Россия / Чувашская Республика     55°32′47″N   46°50′50″E
В апреле 2022 года жителям России запретили посещать сайт meteo.paraplan.net по решению Генеральной прокуратуры. Аудитория сайта уменьшилась в 10 раз. Владельцы сайта не видят смысла в поддержке погодного сервера в таких условиях. Сайт будет закрыт в октябре.
темп.,
°C
ветер,
м/с
пор.,
м/с
влажн.,
%
обл.,
%
осадки,
мм/ч
давл.,
гПа
погр.,
м
4 октября, вт
вт400:00+12ююв51276100 0.4 1017826
03:00+11ююв61284100 0.5 1018672
06:00+11ююв51077100 0.0 1019621
09:00+11ююв51083100 0.0 1020624
12:00+12ююв6974100 0.0 1021692
15:00+12ююв51159100 0.0 1021651
18:00+11ююв51363100 0.0 1021485
21:00+12ююв71450100 0.0 1021779
5 октября, ср
ср500:00+10ююв71486100 0.4 1020880
03:00+9ююв61286100 1.3 1020717
06:00+9ююв5118887 0.1 1019555
09:00+10ю51183100 0.1 1019572
12:00+13ю6973100 0.6 10181016
15:00+12ю4979100 0.8 1018836
18:00+10ююв389451 0.5 1017204
21:00+9ю23945 0.8 101667
6 октября, чт
чт600:00+8ю3887100 0.0 1015330
03:00+8юз3792100 1.3 1015450
06:00+7зюз478779 0.4 1014718
09:00+7зюз468499 0.6 1014711
12:00+5зюз4692100 0.4 1015825
15:00+6зюз468867 0.9 1016608
18:00+6з488993 0.1 1017486
21:00+6зюз389495 0.2 1018372
7 октября, пт
пт700:00+6з489087 0.1 1018354
03:00+4юз38945 0.1 1018169
06:00+3ююз399373 0.0 1017209
09:00+6ююз51387100 0.1 1016439
12:00+9зюз51191100 0.1 1015717
15:00+11зсз61182100 0.2 10161050
18:00+9зсз51180100 0.1 1018883
21:00+9з51276100 0.1 1019614
8 октября, сб
сб800:00+8зсз514840 0.0 1021581
03:00+6з412943 0.0 1022372
06:00+5з4109732 0.0 1024281
09:00+8з488424 0.0 1025399
12:00+12з57670 0.0 1024806
15:00+13зюз47625 0.0 1023940
18:00+9юз37825 0.0 1024126
21:00+7юз39875 0.0 1024171